Regional Weather Roundup
Issued by NWS Cleveland, OH

Home | Current Version | Previous Version | Graphics & Text | Print | Product List | Glossary On
Versions: 1 2 3 4 5 6 7 8 9 10 11 12 13 14 15 16 17 18 19 20 21 22 23 24 25 26 27 28 29 30 31 32 33 34 35 36 37 38 39 40 41 42 43 44 45 46 47 48 49 50
000
ASUS41 KCLE 261910
RWRCLE
OHIO REGIONAL WEATHER ROUNDUP
NATIONAL WEATHER SERVICE CLEVELAND, OH
300 PM EDT FRI AUG 26 2016

NOTE: "FAIR" INDICATES FEW OR NO CLOUDS BELOW 12,000 FEET WITH NO
SIGNIFICANT WEATHER AND/OR OBSTRUCTIONS TO VISIBILITY.

OHZ001>008-015>018-024>027-034-035-043-044-262000-
   NORTHWEST OHIO

CITY           SKY/WX    TMP DP  RH WIND       PRES   REMARKS
DEFIANCE       SUNNY     83  63  50 VRB3      30.15F
FINDLAY        SUNNY     84  61  45 CALM      30.14F
TOLEDO EXPRESS SUNNY     82  61  48 VRB3      30.14F
TOLEDO EXEC    SUNNY     83  60  45 CALM      30.15S
LIMA           SUNNY     83  66  56 CALM      30.16F
$$

OHZ009>014-019>023-028>033-038-089-262000-
   NORTHEAST OHIO

CITY           SKY/WX    TMP DP  RH WIND       PRES   REMARKS
CLE-HOPKINS    MOSUNNY   83  63  50 N6        30.17S
CLE-LAKEFRONT  MOSUNNY   78  63  59 NW5       30.15R
CUY CO. ARPT   MOSUNNY   81  64  57 N9        30.17R
LORAIN-ELYRIA  MOSUNNY   81  60  48 CALM      30.16F
ASHTABULA      SUNNY     80  67  64 NW6       30.16S
AKRON-CANTON   MOSUNNY   86  55  34 W9        30.15F
WOOSTER        MOSUNNY   85  60  42 NW3       30.16S
MANSFIELD      MOSUNNY   84  59  42 W6        30.17F
YOUNGSTOWN     PTSUNNY   83  63  50 VRB5      30.15F
$$

OHZ042-051>053-060>062-070>072-077>081-262000-
  SOUTHWEST OHIO

CITY           SKY/WX    TMP DP  RH WIND       PRES   REMARKS
CINC-COVINGTON PTSUNNY   89  73  59 SW3       30.12F HX  97
CINC-LUNKEN    MOSUNNY   90  75  62 MISG      30.10F HX 100
HAMILTON       MOSUNNY   91  71  51 NW7       30.11F HX  97
DAYTON         MOSUNNY   87  72  60 NW7       30.14  HX  93
WRIGHT-PAT AFB MOSUNNY   88  73  61 VRB1      30.12F HX  95
DAYTON GENERAL PTSUNNY   89  71  55 NE5       30.12F HX  95
WILMINGTON     CLOUDY    85  74  69 CALM      30.13F HX  92
$$

OHZ036-037-039>041-045>050-054>059-063>069-073>076-082>088-262000-
  CENTRAL AND SOUTHEAST OHIO

CITY           SKY/WX    TMP DP  RH WIND       PRES   REMARKS
COLUMBUS       MOSUNNY   88  69  53 W7        30.12F HX  92
OSU AIRPORT    MOSUNNY   87  73  62 NW9       30.13F HX  94
BOLTON FIELD   MOSUNNY   88  73  62 CALM      30.14F HX  96
RICKENBACK AFB SUNNY     87  72  59 W5        30.11F HX  93
NEWARK         MOSUNNY   87  71  58 SW5       30.13F HX  93
MARION         SUNNY     83  61  47 CALM      30.16F
LANCASTER      SUNNY     87  72  60 NW5       30.13F HX  93
ZANESVILLE     PTSUNNY   89  71  55 VRB3      30.13F HX  95
NEW PHILLY     PTSUNNY   90  66  45 W9        30.14S HX  92
$$




USA.gov is the U.S. government's official web portal to all federal, state and local government web resources and services.